Weather History for KELP - February, 2014

Change the Weather History Date:

Sunday, February 2, 2014

  Actual Average Record
Temperature  
Mean Temperature 48 °F 48 °F  
Max Temperature 57 °F 60 °F 76 °F (2003)
Min Temperature 39 °F 35 °F 6 °F (2011)
Degree Days  
Heating Degree Days 17 18  
Month to date heating degree days 22 36  
Since 1 July heating degree days 1578 1721  
Cooling Degree Days 0 0  
Month to date cooling degree days 0 0  
Year to date cooling degree days 0 0  
Moisture  
Dew Point 30 °F    
Average Humidity 49    
Maximum Humidity 71    
Minimum Humidity 26    
Precipitation  
Precipitation T in 0.02 in 0.81 in (1956)
Month to date precipitation T 0.04  
Year to date precipitation T 0.44  
Snow  
Snow 0.00 in - - ()
Month to date snowfall 0.0  
Since 1 July snowfall T  
Snow Depth 0.00 in    
Sea Level Pressure  
Sea Level Pressure 29.91 in    
Wind  
Wind Speed 8 mph (ESE)    
Max Wind Speed 15 mph    
Max Gust Speed 18 mph    
Visibility 10 miles    
Events Rain    
T = Trace of Precipitation, MM = Missing Value Source: NWS Daily Summary

Daily Weather History Graph

Daily Weather History Graph

Search for Another Location

Airport or City:

Trip Planner

Search our weather history database for the weather conditions in past years. The results will help you decide how hot, cold, wet, or windy it might be!

Date:

Astronomy

Feb. 02, 2014 Rise Set
Actual Time 6:58 AM MST 5:40 PM MST
Civil Twilight 6:32 AM MST 6:06 PM MST
Nautical Twilight 6:03 AM MST 6:35 PM MST
Astronomical Twilight 5:34 AM MST 7:04 PM MST
Moon 8:41 AM MST 9:11 PM MST
Length of Visible Light 11h 33m
Length of Day
10h 42m
Waxing Crescent, 12% of the Moon is Illuminated
Feb 2
Waxing Crescent
Feb 6
First Quarter
Feb 14
Full
Feb 22
Last Quarter
Mar 1
New

Hourly Weather History & Observations

Time (MST) Temp. Windchill Dew Point Humidity Pressure Visibility Wind Dir Wind Speed Gust Speed Precip Events Conditions
12:51 AM 50.0 °F - 28.9 °F 44% 29.77 in 10.0 mi Calm Calm - N/A   Mostly Cloudy
1:51 AM 52.0 °F - 30.0 °F 43% 29.78 in 10.0 mi NNW 4.6 mph - N/A   Mostly Cloudy
2:51 AM 48.0 °F - 28.0 °F 46% 29.80 in 10.0 mi NE 8.1 mph - N/A   Mostly Cloudy
3:51 AM 46.9 °F - 28.9 °F 50% 29.81 in 10.0 mi NNW 9.2 mph - N/A   Mostly Cloudy
4:51 AM 46.9 °F - 28.9 °F 50% 29.83 in 10.0 mi North 11.5 mph - N/A   Overcast
5:51 AM 46.0 °F 41.0 °F 30.0 °F 54% 29.87 in 10.0 mi North 10.4 mph - 0.00 in Rain Light Rain
6:51 AM 45.0 °F 40.1 °F 28.9 °F 53% 29.92 in 10.0 mi NNE 9.2 mph - 0.00 in   Mostly Cloudy
7:51 AM 45.0 °F 40.6 °F 28.9 °F 53% 29.95 in 10.0 mi NE 8.1 mph - N/A   Mostly Cloudy
8:51 AM 45.0 °F 39.3 °F 36.0 °F 71% 29.97 in 10.0 mi ESE 11.5 mph - N/A   Scattered Clouds
9:51 AM 46.9 °F - 37.9 °F 71% 29.99 in 10.0 mi SSE 6.9 mph - N/A   Scattered Clouds
10:51 AM 48.9 °F - 35.1 °F 59% 29.99 in 10.0 mi SSE 8.1 mph - N/A   Scattered Clouds
11:51 AM 50.0 °F - 35.1 °F 57% 29.99 in 10.0 mi SSE 9.2 mph 18.4 mph N/A   Scattered Clouds
12:51 PM 52.0 °F - 32.0 °F 47% 29.94 in 10.0 mi Variable 5.8 mph - N/A   Mostly Cloudy
1:51 PM 54.0 °F - 30.0 °F 40% 29.91 in 10.0 mi SSE 10.4 mph - N/A   Scattered Clouds
2:51 PM 55.9 °F - 24.1 °F 29% 29.89 in 10.0 mi South 10.4 mph 16.1 mph N/A   Scattered Clouds
3:51 PM 55.9 °F - 21.0 °F 26% 29.88 in 10.0 mi SSE 11.5 mph - N/A   Scattered Clouds
4:51 PM 55.0 °F - 25.0 °F 31% 29.90 in 10.0 mi SSE 10.4 mph - N/A   Partly Cloudy
5:51 PM 51.1 °F - 28.9 °F 43% 29.91 in 10.0 mi SE 8.1 mph - N/A   Scattered Clouds
6:51 PM 46.9 °F - 30.9 °F 54% 29.94 in 10.0 mi ESE 12.7 mph - N/A   Scattered Clouds
7:51 PM 44.1 °F 39.5 °F 30.9 °F 60% 29.95 in 10.0 mi East 8.1 mph - N/A   Scattered Clouds
8:51 PM 44.1 °F - 30.9 °F 60% 29.96 in 10.0 mi Calm Calm - N/A   Mostly Cloudy
9:51 PM 42.1 °F 38.4 °F 30.9 °F 65% 29.96 in 10.0 mi South 5.8 mph - N/A   Mostly Cloudy
10:51 PM 41.0 °F 39.0 °F 30.9 °F 67% 29.96 in 10.0 mi SSW 3.5 mph - N/A   Mostly Cloudy
11:51 PM 39.9 °F - 30.0 °F 68% 29.94 in 10.0 mi Calm Calm - N/A   Mostly Cloudy